カタログに戻る

USA 257

運用中軍事GEO
NORAD 40208·PAYLOAD·🇺🇸 United States

打ち上げ Sep 17, 2014 から Cape Canaveral Space Force Station

Loading…

TLE

最新Source: Mike McCants

元期: Sep 14, 2026, 13:38 UTC

1 40208U 14055A   26257.56819454  .00000000  00000-0  00000-0 0    06
2 40208   5.7904  72.9314 0017493 323.3559  36.5273  1.00281279 22696

AllMySatでUSA 257をリアルタイム追跡

Download on the App Store